Flag for Canada Weather past 2 weeks in Winnipeg, Manitoba, Canada

Now
51 °F

Cool.


Feels Like: 48 °F
Forecast: N/A
Wind: 8 mph from Northwest

Location: Winnipeg The Forks

Current Time: Mar 29, 2015 at 6:28:20 PM

Latest Report: Mar 29, 2015 at 6:00 PM


Visibility: N/A

Pressure: 29.84 "Hg

Humidity: 33%

Dew point: 23 °F

Location of WinnipegLocation

Historic Weather in Winnipeg — Graph

°F

Winnipeg temperature yesterday

Maximum temperature yesterday: 45 °F (at 5:00 PM)
Minimum temperature yesterday: 24 °F (at 7:00 AM)
Average temperature yesterday: 35 °F

Past Weeks' High & Low Weather Summary

 TemperatureHumidityPressure
High60 °F (Mar 15, 3:00 PM)100% (Mar 24, 8:00 AM)30.48 "Hg (Mar 24, 8:00 AM)
Low7 °F (Mar 21, 4:00 AM)26% (Mar 15, 5:00 PM)29.44 "Hg (Mar 29, 2:00 AM)
Average32 °F64%30.10 "Hg
* Reported Mar 14 5:00 PM — Mar 29 5:00 PM, Winnipeg, Weather by CustomWeather, © 2015

Note: Actual official high and low records may vary slightly from our data, if they occured in-between our weather recording intervals... More about our weather records

Advertising

Winnipeg weather history for previous 24 hours

 ConditionsComfort  
Time TempWeatherWind HumidityBarometerVisibility
5:00 PM
Sun, Mar 29
51 °FCool.9 mph38%29.84 "HgN/A
4:00 PM50 °FCool.8 mph37%29.83 "HgN/A
3:00 PM48 °FCool.9 mph41%29.83 "HgN/A
2:00 PM46 °FCool.7 mph53%29.84 "HgN/A
1:00 PM46 °FCool.12 mph52%29.83 "HgN/A
12:00 PM44 °FQuite cool.7 mph62%29.82 "HgN/A
11:00 AM41 °FQuite cool.9 mph73%29.80 "HgN/A
10:00 AM36 °FChilly.10 mph87%29.77 "HgN/A
9:00 AM38 °FChilly.9 mph73%29.74 "HgN/A
8:00 AM37 °FChilly.10 mph77%29.69 "HgN/A
7:00 AM37 °FChilly.10 mph81%29.65 "HgN/A
6:00 AM37 °FChilly.10 mph81%29.58 "HgN/A
5:00 AM38 °FChilly.10 mph84%29.53 "HgN/A
4:00 AM40 °FChilly.9 mph87%29.48 "HgN/A
3:00 AM40 °FQuite cool.3 mph89%29.45 "HgN/A
2:00 AM41 °FQuite cool.5 mph79%29.44 "HgN/A
1:00 AM42 °FQuite cool.12 mph78%29.45 "HgN/A
12:00 AM42 °FQuite cool.9 mph72%29.46 "HgN/A
11:00 PM
Sat, Mar 28
44 °FQuite cool.9 mph61%29.49 "HgN/A
10:00 PM43 °FQuite cool.7 mph61%29.52 "HgN/A
9:00 PM45 °FCool.9 mph59%29.56 "HgN/A
8:00 PM45 °FQuite cool.8 mph60%29.58 "HgN/A
7:00 PM45 °FCool.8 mph62%29.60 "HgN/A
6:00 PM45 °FCool.9 mph59%29.64 "HgN/A
Weather by CustomWeather, © 2015

See weather overviewHow to use our weather pages